Regional Weather Roundup
Issued by NWS Newport/Morehead, NC

Current Version | Previous Version | Graphics & Text | Print | Product List | Glossary On
Versions: 1 2 3 4 5 6 7 8 9 10 11 12 13 14 15 16 17 18 19 20 21 22 23 24 25 26 27 28 29 30 31 32 33 34 35 36 37 38 39 40 41 42 43 44 45 46 47 48 49 50
000 ASUS42 KMHX 240125 RWRMHX WEATHER ROUNDUP FOR EASTERN NORTH CAROLINA NATIONAL WEATHER SERVICE NEWPORT/MOREHEAD CITY NC 900 PM EDT SAT JUL 23 2016 NOTE: "FAIR" INDICATES FEW OR NO CLOUDS BELOW 12,000 FEET WITH NO SIGNIFICANT WEATHER AND/OR OBSTRUCTIONS TO VISIBILITY NCZ015>017-031-032-045>047-102-103-240200- NORTH COAST CITY SKY/WX TMP DP RH WIND PRES REMARKS EDENTON CLEAR 87 75 67 S10 29.95S ELIZABETH CITY CLEAR 85 76 74 S7 29.94R KITTY HAWK CLEAR 84 76 77 S7 29.95R MANTEO N/A 84 80 86 SW14 29.97R $$ NCZ045>047-081-094-103-104-240200- CENTRAL COAST CITY SKY/WX TMP DP RH WIND PRES REMARKS FRISCO CLEAR 83 76 79 SW8 29.99R $$ NCZ095-097-098-100-101-240200- SOUTHERN COAST CITY SKY/WX TMP DP RH WIND PRES REMARKS BEAUFORT CLEAR 83 76 79 SW14 29.98S CEDAR ISLAND NOT AVBL JACKSONVILLE CLEAR 81 74 79 SW5 29.98R PINEY ISLAND NOT AVBL WILMINGTON PTCLDY 82 74 76 SW7 29.99R $$ NCZ011>013-027>030-043-044-078>080-089-090>093-098-240200- COASTAL PLAIN CITY SKY/WX TMP DP RH WIND PRES REMARKS AHOSKIE CLEAR 81 78 90 CALM 29.95R CLINTON CLEAR 80 73 81 SW7 29.99R ELIZABETHTOWN CLOUDY 76 73 88 SW6 29.99F GOLDSBORO CLEAR 85 79 81 S8 29.95R GREENVILLE CLEAR 86 75 70 S12 29.98R HAVELOCK CLEAR 81 74 79 S7 29.99R KENANSVILLE NOT AVBL KINSTON CLEAR 84 75 74 S9 29.98R NEW BERN CLEAR 81 73 76 SW8 29.99R RICHLANDS CLEAR 80 75 84 S7 29.98S ROCKY MOUNT CLEAR 81 77 88 CALM 29.96R WASHINGTON CLEAR 83 74 73 S6 29.97R WHITEVILLE CLOUDY 74 71 91 CALM 29.98F $$ AMZ130-135-150-152-154-156-158-170-250-252-270-ANZ085-086-088-633-658-670-240200- MARINE OBSERVATIONS STATION/POSITION TIME TEMP WIND PRES WAVE SWELL AIR SEA DIR/SP/G HT/PER HT/PER (UTC) (F) (DEG/KT/KT) (MB) (FT/S) (FT/S) CHESAPEAKE LIGHT NOT AVBL 64 E VA BEACH 2350 82 81 210/ 14/ 17 1013.2 3/ 8 2/ 8 DUCK 0000 67 N/A 2 E DUCK 0011 76 N/A 2/ 8 OREGON INLET 0000 85 N/A 13E OREGON INLT 0000 82 N/A 3/ 4 2/ 8 HATTERAS CG 0000 83 N/A DIAMOND BUOY 0050 84 86 220/ 14/ 16 1015.3 3/ 8 2/ 8 CAPE LOOKOUT 0100 83 210/ 8/ 11 1015.4 BEAUFORT LAB 0000 84 N/A 30 SE NEW RVR IN 0008 84 85 200/ 12/ 16 1015.1 30 SE NEW RVR IN 0025 85 N/A 2/ 9 27 SE WRIGHTSVLE 0008 84 85 220/ 12/ 14 1015.6 5 SE WRIGHTSVLE 0008 84 84 220/ 12/ 16 1016.2 225 S CAPE HAT 0050 83 85 130/ 6/ 8 1016.4 3/ 9 3/ 9 41 SE CHARLESTON 0050 85 86 180/ 10/ 12 1014.9 2/ 9 2/ 9 $$

USA.gov is the U.S. government's official web portal to all federal, state and local government web resources and services.